Regional Weather Roundup
Issued by NWS

Home | Current Version | Previous Version | Graphics & Text | Print | Product List | Glossary On
Versions: 1 2 3 4 5 6 7 8 9 10 11 12 13 14 15 16 17 18 19 20 21 22 23 24 25 26 27 28 29 30 31 32 33 34 35 36 37 38 39 40 41 42 43 44 45 46 47 48 49 50
000
ASUS43 KBIS 301510
RWRND

NORTH DAKOTA REGIONAL WEATHER ROUNDUP
NATIONAL WEATHER SERVICE BISMARCK ND
1000 AM CDT SAT MAY 30 2015

NOTE: "FAIR" INDICATES FEW OR NO CLOUDS BELOW 12,000 FEET WITH NO
SIGNIFICANT WEATHER AND/OR OBSTRUCTIONS TO VISIBILITY.


NDZ001>003-009>011-017-301600-
NORTHWEST NORTH DAKOTA

CITY           SKY/WX    TMP DP  RH WIND       PRES   REMARKS
WILLISTON      MOSUNNY   48  35  60 SE18G24   30.31F
MINOT          PTSUNNY   42  28  57 SE10      30.40S
MINOT AFB      PTSUNNY   46  32  57 SE13      30.40S
$$

NDZ018>021-031>035-040>046-301600-
SOUTHWEST NORTH DAKOTA

CITY           SKY/WX    TMP DP  RH WIND       PRES   REMARKS
BISMARCK       SUNNY     45  29  53 E10       30.40F
DICKINSON      MOSUNNY   48  37  65 SE20      30.29F
GARRISON         N/A     44  31  60 SE14      30.38F
HETTINGER ARPT MOSUNNY   47  38  71 SE15      30.31F
$$

NDZ004>008-012>016-024-026-027-054-301600-
NORTHEAST NORTH DAKOTA

CITY           SKY/WX    TMP DP  RH WIND       PRES   REMARKS
GRAND FORKS    MOSUNNY   42  27  55 N14G22    30.41F
GRND FRKS AFB  SUNNY     43  26  50 NE10      30.41F
DEVILS LAKE    SUNNY     39  21  48 NE14      30.41S
$$

NDZ022-023-025-028>030-036>039-047>053-301600-
SOUTHEAST NORTH DAKOTA

CITY           SKY/WX    TMP DP  RH WIND       PRES   REMARKS
FARGO          SUNNY     44  31  60 NE13      30.38S
JAMESTOWN      SUNNY     42  28  57 NE13      30.40S
$$



USA.gov is the U.S. government's official web portal to all federal, state and local government web resources and services.